Location: Krakow
(50.0830°N, 19.9170°E)
Time: 22:19:31
(UTC+02:00)

AO-73 - Visible Passes

Search period start: 30 May 2024 00:00
Search period end: 09 June 2024 00:00
Orbit: 559 x 625 km, 97.7° (Epoch: 30 May)

Date Brightness Start Highest point End Pass type
(mag) Time Alt. Az. Time Alt. Az. Time Alt. Az.
30 May ? 03:26:14 10° NNE 03:30:08 38° E 03:33:56 10° SSE visible
31 May ? 03:34:47 10° NNE 03:38:48 46° E 03:42:43 10° S visible
01 Jun ? 03:43:21 10° NNE 03:47:28 57° E 03:51:27 10° S visible
02 Jun ? 03:51:56 10° NNE 03:56:05 70° ESE 04:00:07 10° S visible
04 Jun ? 02:35:34 10° ENE 02:37:07 12° E 02:38:39 10° ESE visible
05 Jun ? 02:43:32 10° NE 02:45:48 14° E 02:48:01 10° ESE visible
06 Jun ? 02:51:42 10° NE 02:54:27 17° E 02:57:09 10° SE visible
07 Jun ? 02:59:58 10° NE 03:03:05 21° E 03:06:09 10° SE visible
08 Jun ? 03:08:18 10° NE 03:11:42 25° E 03:15:01 10° SSE visible
